Regional Weather Roundup
Issued by NWS Raleigh/Durham, NC

Home | Current Version | Previous Version | Text Only | Print | Product List | Glossary On
Versions: 1 2 3 4 5 6 7 8 9 10 11 12 13 14 15 16 17 18 19 20 21 22 23 24 25 26 27 28 29 30 31 32 33 34 35 36 37 38 39 40 41 42 43 44 45 46 47 48 49 50
000
ASUS42 KRAH 261510
RWRRAH
NORTH CAROLINA WEATHER ROUNDUP
NATIONAL WEATHER SERVICE RALEIGH NC
1100 AM EDT SAT JUL 26 2014

NOTE: "FAIR" INDICATES FEW OR NO CLOUDS BELOW 12,000 FEET WITH NO
SIGNIFICANT WEATHER AND/OR OBSTRUCTIONS TO VISIBILITY.

NCZ001-053-055-056-065-067-261600-
WESTERN NORTH CAROLINA

CITY           SKY/WX    TMP DP  RH WIND       PRES   REMARKS
ASHEVILLE      SUNNY     76  62  62 N13       30.13R
JEFFERSON      SUNNY     73  54  52 W8        30.16S
MORGANTON      SUNNY     80  64  57 CALM      30.11S
HICKORY        SUNNY     81  68  64 VRB3      30.07S
RUTHERFORDTON  MOSUNNY   80  69  69 CALM      30.07R
MOUNT AIRY     SUNNY     80  71  74 W3        30.05F
BOONE          SUNNY     71  55  56 W7        30.16S
$$

NCZ021-022-025-041-071-084-088-261600-
CENTRAL NORTH CAROLINA

CITY           SKY/WX    TMP DP  RH WIND       PRES   REMARKS
CHARLOTTE      MOSUNNY   80  71  74 CALM      30.05S
GREENSBORO     PTSUNNY   81  70  69 NW6       30.04F
WINSTON-SALEM  MOSUNNY   84  68  58 N5        30.06S
RALEIGH-DURHAM CLOUDY    77  71  82 SW5       30.05S
FORT BRAGG     SUNNY     84  72  67 VRB1      30.03S
FAYETTEVILLE   MOSUNNY   82  72  71 SW3       30.03S
BURLINGTON     CLOUDY    78  70  76 S3        30.05S
LAURINBURG     MOSUNNY   82  72  71 CALM      30.04S
$$

NCZ011-015-027-028-043-044-047-080-103-261600-
NORTHEASTERN NORTH CAROLINA

CITY           SKY/WX    TMP DP  RH WIND       PRES   REMARKS
ROCKY MT-WILSO CLOUDY    80  72  76 CALM      30.04S
GREENVILLE     MOSUNNY   81  72  74 CALM      30.05S
WASHINGTON     MOSUNNY   80  72  76 CALM      30.04R
ELIZABETH CITY SUNNY     81  63  54 SE6       30.03F
MANTEO         NOT AVBL
CAPE HATTERAS  PTSUNNY   84  73  69 NE9       30.02F
$$

NCZ078-087-090-091-093-098-101-261600-
SOUTHEASTERN NORTH CAROLINA

CITY           SKY/WX    TMP DP  RH WIND       PRES   REMARKS
LUMBERTON      MOSUNNY   82  73  74 NW3       30.03S
GOLDSBORO      PTSUNNY   82  75  78 E5        30.02R
KINSTON        SUNNY     82  72  69 E3        30.04S
KENANSVILLE    MOSUNNY   82  71  68 CALM      30.05R
NEW BERN       MOSUNNY   85  72  65 CALM      30.04S
CHERRY POINT   PTSUNNY   83  72  69 NE3       30.04R
BEAUFORT       PTSUNNY   84  74  71 CALM      30.02S
JACKSONVILLE   MOSUNNY   84  74  71 NE3       30.03R
WILMINGTON     MOSUNNY   85  74  69 CALM      30.03R
$$



USA.gov is the U.S. government's official web portal to all federal, state and local government web resources and services.